Location: Catstown
(52.4386°N, 7.2633°W)
Time: 11:47:28
(UTC+00:00)

Cosmos 1833 Rocket - Pass Details

Date: 26 January 2021
Orbit: 833 x 839 km, 71.0° (Epoch: 24 February)

Event Time Altitude Azimuth Distance (km) Brightness Sun altitude
Rises 19:32:10 0° 326° (NW) 3,394 6.3 -22.2°
Reaches altitude 10° 19:34:40 10° 322° (NW) 2,456 5.6 -22.6°
Maximum altitude 19:40:06 52° 248° (WSW) 1,038 3.4 -23.4°
Drops below altitude 10° 19:45:30 10° 173° (S) 2,443 5.0 -24.2°
Sets 19:47:59 0° 169° (SSE) 3,374 5.7 -24.6°
